Погода в Лаврентьеве

Россия / Республика Мордовия     54°29′29″N   43°03′03″E
темп.,
°C
ветер,
м/с
пор.,
м/с
влажн.,
%
обл.,
%
осадки,
мм/ч
давл.,
гПа
погр.,
м
25 июня, сб
сб2500:00+14с268269 0.0 1014111
03:00+13с25822 0.0 101580
06:00+16ссв27735 0.0 1015183
09:00+23ссв36505 0.0 1016769
12:00+26ссв46406 0.0 10162178
15:00+27ссв564030 0.0 10162308
18:00+24ссв37520 0.0 10161183
21:00+18с22780 0.0 101734
26 июня, вс
вс2600:00+16с26850 0.0 1019115
03:00+15с24910 0.0 101979
06:00+18с25800 0.0 1020176
09:00+23ссв24570 0.0 1020793
12:00+26ссв47440 0.0 10201825
15:00+27ссв48410 0.0 10201966
18:00+24св36545 0.0 1020804
21:00+18всв11770 0.0 102111
27 июня, пн
пн2700:00+16ююз11860 0.0 102112
03:00+15юз23920 0.0 102162
06:00+19зюз36770 0.0 1020185
09:00+25з46600 0.0 1019618
12:00+29зсз56490 0.0 10181437
15:00+28зсз375767 0.0 1016632
18:00+28сз48470 0.0 1016729
21:00+23с2968100 0.0 1017281
28 июня, вт
вт2800:00+18ссв258645 0.0 101895
03:00+15ссв26973 0.0 1019151
06:00+16св38700 0.0 1020351
09:00+19ссв46470 0.0 10211214
12:00+21ссв56350 0.0 10211730
15:00+21с56354 0.0 10211972
18:00+19ссв35460 0.0 10221565
21:00+13всв23700 0.0 102352
29 июня, ср
ср2900:00+10с11760 0.0 102410
03:00+9с22760 0.0 102424
06:00+12ссв23650 0.0 1025146
09:00+18ссв35410 0.0 10241429
12:00+20ссв34345 0.0 10242112
15:00+21ссв34335 0.0 10232181
18:00+20с34430 0.0 10231593
21:00+13с22620 0.0 102412